カタログに戻る

STARLINK-36917

運用中通信VLEO
NORAD 68059·PAYLOAD·🇺🇸 United States

打ち上げ Mar 2, 2026 から Vandenberg Space Force Base

Loading…

次のパス (今後24時間)

TLE

最新Source: CelesTrak SupGP

元期: Sep 15, 2026, 04:20 UTC

1 68059C 26041V   26258.18104167 -.00040537  00000+0 -11977-2 0  2587
2 68059  53.1580 244.8547 0001411  89.1555  89.2561 15.34409224    12

AllMySatでSTARLINK-36917をリアルタイム追跡

Download on the App Store